OPS 4682 DEB, 26731

Orbit data source: Space-Track

OPS 4682 DEB, 26731 is space debris in LEO originally from a launch on Sat, 03 Apr 1965 UTC launched from the Air Force Western Test Range (AFWTR). Debris objects in space refer to the collection of defunct objects orbiting the Earth. Examples of debris include non-operational satellites, rocket bodies, and fragments generated from explosions, collisions, or faulty payload assembly.

Loading next visibility...
Identifier
26731, 1965-027BE
Orbit
LEO
Country
Flag of USUS
Related business
Manufacturer
Unknown
Mission
Spacecraft
Bus & Motor
Unknown
Mass
Unknown
Launch date (UTC)
1965-04-03 (61 years ago)
Launch vehicle
Unknown
Launch site
Air Force Western Test Range (AFWTR)
Object type
Payload
Rocket body
Debris
Shape & HBR
Unknown shape, 0.1 m
Radar Cross Section
Medium (>0.1 m² and <1 m²)

Expand to show TLE details & history
Last TLE update: 13 hours ago

TLE from 13 hours ago
0 OPS 4682 DEB
1 26731U 65027BE  26263.11085847  .00000692  00000-0  24276-2 0  9992
2 26731  90.2653  16.6838 0021188 333.4345 148.1702 12.95374592574133
Epoch: 2026-09-20T02:39Z
TLE epoch observation values (Epoch: 2026-09-20T02:39:38.171Z)
Latitude
58.3554°
Longitude
158.19336°
Altitude
1,303.973 km
Speed
7.203 km/s
True Right ascension
13h 08m 26s
True Declination
58° 12' 45"
Sunlit
Object was in daylight at epoch
Visualization orbit readout
Latitude
Unknown
Longitude
Unknown
Altitude
Unknown
Speed
Unknown
Apparent Right ascension
Unknown
Apparent Declination
Unknown
Sunlit
N/A
Visualization observer readout
Local Sidereal Time
08:49:03
Azimuth
Unknown
Elevation
Unknown
Doppler factor
Unknown
Orbital elements
Apogee altitude
1,293.618 km
Perigee altitude
1,261.177 km
Semi-major axis
7,655.534 km
Eccentricity
0.00212
Inclination
90.2653°
RAAN
16.6838°
Arg. of periapsis
333.4345°
True anomaly
148.29796°
Mean anomaly
148.1702°
Eccentric anomaly
148.23411°
Mean motion
3.24026 °/min
Orbital period
111.1 mins
BSTAR
0.0024276
Loading maneuver chart data...
Computing Atmospheric mass density...
Loading historical data...
Loading historical data...
Loading historical data...
Loading historical data...
Loading historical data...
Loading historical data...
Loading historical data...

Documentation

Showing up to 5 results
|